Location: Burgwalden
(48.2830°N, 10.7576°E)
Time: 21:59:52
(UTC+00:00)

PAYLOAD A - Pass Details

Date: 26 September 2023
Orbit: 691 x 830 km, 98.5° (Epoch: 09 December)

Event Time Altitude Azimuth Distance (km) Brightness Sun altitude
Rises 02:51:01 0° 16° (NNE) 3,104 7.8 -23.0°
Reaches altitude 10° 02:53:16 10° 18° (NNE) 2,193 6.9 -22.6°
Maximum altitude 02:58:03 71° 103° (ESE) 767 4.0 -21.9°
Enters shadow 03:01:00 24° 183° (S) 1,486 5.2 -21.5°
